Regional Weather Roundup
Issued by NWS Newport/Morehead, NC

Current Version | Previous Version | Text Only | Print | Product List | Glossary On
Versions: 1 2 3 4 5 6 7 8 9 10 11 12 13 14 15 16 17 18 19 20 21 22 23 24 25 26 27 28 29 30 31 32 33 34 35 36 37 38 39 40 41 42 43 44 45 46 47 48 49 50
838
ASUS42 KMHX 120225
RWRMHX
WEATHER ROUNDUP FOR EASTERN NORTH CAROLINA
NATIONAL WEATHER SERVICE NEWPORT/MOREHEAD CITY NC
900 PM EST THU FEB 11 2016

NOTE: "FAIR" INDICATES FEW OR NO CLOUDS BELOW 12,000 FEET
WITH NO SIGNIFICANT WEATHER AND/OR OBSTRUCTIONS TO VISIBILITY

NCZ015>017-031-032-045>047-102-103-120300-
NORTH COAST

CITY           SKY/WX    TMP DP  RH WIND       PRES   REMARKS
EDENTON        CLEAR     28  15  57 CALM      30.30R
ELIZABETH CITY CLEAR     25  14  63 W3        30.29R
KITTY HAWK     CLEAR     32  13  45 CALM      30.27R
MANTEO         CLEAR     34  10  36 NW9       30.29R

$$

NCZ045>047-081-094-103-104-120300-
CENTRAL COAST

CITY           SKY/WX    TMP DP  RH WIND       PRES   REMARKS
FRISCO         CLEAR     37  13  37 NW8       30.28R
SWANQUARTER      N/A     27 N/A N/A CALM      30.27R

$$

NCZ095-097-098-100-101-120300-
SOUTHERN COAST

CITY           SKY/WX    TMP DP  RH WIND       PRES   REMARKS
BEAUFORT       CLEAR     30  19  63 CALM      30.30R
CEDAR ISLAND     N/A     37 N/A N/A NW12      30.33S
JACKSONVILLE   CLEAR     29  23  78 CALM      30.29R
PINEY ISLAND   CLEAR    N/A N/A N/A NW5       30.29R
WILMINGTON     CLEAR     34  24  67 CALM      30.28R


$$

NCZ011>013-027>030-043-044-078>080-089-090>093-098-120300-
COASTAL PLAIN

CITY           SKY/WX    TMP DP  RH WIND       PRES   REMARKS
AHOSKIE        CLEAR     26  12  55 CALM      30.30R
CLINTON        CLEAR     31  25  78 CALM      30.29R
ELIZABETHTOWN  CLEAR     33  23  66 CALM      30.27R
GOLDSBORO      CLEAR     30  16  55 NE2       30.26R
GREENVILLE     CLEAR     28  19  69 CALM      30.30R
HAVELOCK       CLEAR     30  18  60 CALM      30.30R
KENANSVILLE    CLEAR     27  20  72 CALM      30.30R
KINSTON        CLEAR     27  21  80 CALM      30.29R
NEW BERN       CLEAR     25  18  74 CALM      30.29R
RICHLANDS      CLEAR     27  18  69 CALM      30.29R
ROCKY MOUNT    CLEAR     26  18  71 CALM      30.28R
WASHINGTON     CLEAR     25  16  69 CALM      30.29R
WHITEVILLE     CLEAR     33  25  71 CALM      30.27R

$$

AMZ130-135-150-152-154-156-158-170-250-252-270-ANZ085-086-088-633-658-670-120300-
MARINE OBSERVATIONS

STATION/POSITION TIME  TEMP    WIND        PRES    WAVE   SWELL
                       AIR SEA DIR/SP/G            HT/PER HT/PER
                 (UTC) (F)     (DEG/KT/KT) (MB)    (FT/S) (FT/S)
CHESAPEAKE LIGHT 0200   34     310/ 18/ 20 1025.6
64 E VA BEACH    0150   36 49  300/ 17/ 23 1024.0    5/ 6   2/ 9
DUCK             0200   35                   N/A
2 E DUCK         0211      43                N/A     2/13
OREGON INLET     0200   35 41                N/A
13E OREGON INLT  0200      47                N/A     4/ 6
HATTERAS CG      0200   38 45                N/A
DIAMOND BUOY     0150   41 69  310/ 17/ 23 1025.2    4/ 4   2/ 7
CAPE LOOKOUT     NOT AVBL
BEAUFORT LAB     0200   37 45                N/A
30 SE NEW RVR IN 0208   45 59              1025.2
30 SE NEW RVR IN 0125      59                N/A     4/ 8
27 SE WRIGHTSVLE 0208   46 61   10/  6/ 10 1023.5
5 SE WRIGHTSVLE  0108   45 50  320/  4/  8 1025.3
225 S CAPE HAT   0150   56 68  300/ 17/ 21   N/A     8/ 8   3/12
41 SE CHARLESTON 0150   53 67  270/  4/  6 1024.3    2/ 5   2/ 5

$$




USA.gov is the U.S. government's official web portal to all federal, state and local government web resources and services.